Date String (YYYY-MM-DD hh:mm:ss) UTC,Instrument flags,absolute air pressure of the measurement (hPa),sample flow rate (lpm),inlet stack bypass flow (lpm),air temperature of the measurement (°C),ambient temperature measured by the external sensor (°C),aerosol sample conditioner tube jacket temperature (°C),OPC LED temperature (°C),internal box temperature (°C),relative humidity of the measurement (%),span deviation,mass concentration of particles derived from Lorenz-Mie calculation of OPC scattering (μg/m³),mass concentration of particles derived from Lorenz-Mie calculation of OPC scattering (μg/m³),mass concentration of particles derived from Lorenz-Mie calculation of OPC scattering (μg/m³)
DateTimeUTC,F1_M11,P_M11,Q1_M11,Q2_M11,T1_M11,T2_M11,T3_M11,T4_M11,T5_M11,U1_M11,ZSPAN_M11,X0_M11,X2_M11,X1_M11
2024-05-06 06:00:00,SystemResetWarning,0812.5,5.00,000.00,025.1,024.4,000.0,033.4,026.9,016.4,0000.0,0010.05,0003.92,0002.41
2024-05-06 06:01:00,SystemResetWarning,0812.5,4.99,000.00,025.1,024.5,000.0,033.4,026.9,016.4,0000.0,0010.20,0003.92,0002.40
2024-05-06 06:02:00,SystemResetWarning,0812.4,5.00,000.00,025.1,024.5,000.0,033.4,027.0,016.4,0000.0,0010.24,0003.89,0002.38
2024-05-06 06:03:00,SystemResetWarning,0812.4,5.00,000.00,025.1,024.6,000.0,033.5,027.0,016.3,0000.0,0009.75,0003.88,0002.38
2024-05-06 06:04:00,SystemResetWarning,0812.4,5.00,000.00,025.2,024.6,000.0,033.5,027.0,016.4,0000.0,0009.38,0003.82,0002.39
2024-05-06 06:05:00,SystemResetWarning,0812.4,5.00,000.00,025.2,024.7,000.0,033.5,027.1,016.5,0000.0,0009.07,0003.80,0002.40
2024-05-06 06:06:00,SystemResetWarning,0812.3,5.00,000.00,025.2,024.7,000.0,033.5,027.1,016.5,0000.0,0009.05,0003.78,0002.38
2024-05-06 06:07:00,SystemResetWarning,0812.3,5.01,000.00,025.3,024.7,000.0,033.5,027.1,016.6,0000.0,0009.08,0003.81,0002.39
2024-05-06 06:08:00,SystemResetWarning,0812.3,5.01,000.00,025.3,024.7,000.0,033.6,027.1,016.7,0000.0,0010.01,0003.77,0002.37
2024-05-06 06:09:00,SystemResetWarning,0812.2,4.99,000.00,025.3,024.8,000.0,033.6,027.2,016.7,0000.0,0009.98,0003.77,0002.36
2024-05-06 06:10:00,SystemResetWarning,0812.2,4.99,000.00,025.3,024.8,000.0,033.6,027.2,016.8,0000.0,0010.73,0003.83,0002.38
2024-05-06 06:11:00,SystemResetWarning,0812.2,5.00,000.00,025.3,024.8,000.0,033.6,027.2,016.7,0000.0,0011.15,0003.86,0002.39
2024-05-06 06:12:00,SystemResetWarning,0812.1,5.01,000.00,025.4,024.8,000.0,033.7,027.2,016.7,0000.0,0010.81,0003.83,0002.38
2024-05-06 06:13:00,SystemResetWarning,0812.1,5.01,000.00,025.4,024.8,000.0,033.7,027.2,016.5,0000.0,0010.29,0003.80,0002.38
2024-05-06 06:14:00,SystemResetWarning,0812.1,5.00,000.00,025.4,024.8,000.0,033.7,027.3,016.5,0000.0,0010.27,0003.80,0002.38
2024-05-06 06:15:00,SystemResetWarning,0812.1,5.00,000.00,025.4,024.8,000.0,033.7,027.3,016.6,0000.0,0010.35,0003.82,0002.37
2024-05-06 06:16:00,SystemResetWarning,0812.1,4.99,000.00,025.5,024.8,000.0,033.7,027.3,016.6,0000.0,0011.27,0003.84,0002.38
2024-05-06 06:17:00,SystemResetWarning,0812.1,5.01,000.00,025.5,024.8,000.0,033.8,027.3,016.5,0000.0,0011.25,0003.83,0002.40
2024-05-06 06:18:00,SystemResetWarning,0812.1,5.00,000.00,025.5,024.9,000.0,033.8,027.3,016.1,0000.0,0011.53,0003.85,0002.40
2024-05-06 06:19:00,SystemResetWarning,0812.1,5.00,000.00,025.5,024.9,000.0,033.8,027.4,016.1,0000.0,0010.83,0003.87,0002.39
2024-05-06 06:20:00,SystemResetWarning,0812.0,5.00,000.00,025.5,024.9,000.0,033.8,027.3,015.9,0000.0,0010.63,0003.82,0002.37
2024-05-06 06:21:00,SystemResetWarning,0812.0,5.00,000.00,025.5,024.9,000.0,033.8,027.4,016.1,0000.0,0011.02,0003.78,0002.34
2024-05-06 06:22:00,SystemResetWarning,0812.0,5.00,000.00,025.5,024.9,000.0,033.9,027.4,016.1,0000.0,0010.76,0003.80,0002.33
2024-05-06 06:23:00,SystemResetWarning,0811.9,5.00,000.00,025.6,024.9,000.0,033.9,027.4,016.0,0000.0,0010.70,0003.79,0002.32
2024-05-06 06:24:00,SystemResetWarning,0811.8,5.00,000.00,025.6,024.9,000.0,033.9,027.4,016.0,0000.0,0010.72,0003.76,0002.30
2024-05-06 06:25:00,SystemResetWarning,0811.8,5.00,000.00,025.6,024.9,000.0,033.9,027.4,015.9,0000.0,0010.65,0003.72,0002.27
2024-05-06 06:26:00,SystemResetWarning,0811.8,5.00,000.00,025.6,024.9,000.0,033.9,027.4,016.0,0000.0,0011.03,0003.72,0002.28
2024-05-06 06:27:00,SystemResetWarning,0811.8,5.01,000.00,025.6,024.9,000.0,033.9,027.4,016.1,0000.0,0010.47,0003.71,0002.27
2024-05-06 06:28:00,SystemResetWarning,0811.8,5.00,000.00,025.6,024.9,000.0,034.0,027.4,016.1,0000.0,0010.30,0003.68,0002.25
2024-05-06 06:29:00,SystemResetWarning,0811.7,5.00,000.00,025.6,024.9,000.0,034.0,027.5,016.1,0000.0,0010.63,0003.71,0002.25
2024-05-06 06:30:00,SystemResetWarning,0811.7,5.00,000.00,025.6,024.9,000.0,034.0,027.4,016.1,0000.0,0011.51,0003.75,0002.27
2024-05-06 06:31:00,SystemResetWarning,0811.8,5.00,000.00,025.6,024.9,000.0,034.0,027.4,016.3,0000.0,0012.01,0003.82,0002.29
2024-05-06 06:32:00,SystemResetWarning,0811.8,5.00,000.00,025.6,024.9,000.0,034.0,027.4,016.3,0000.0,0011.62,0003.84,0002.33
2024-05-06 06:33:00,SystemResetWarning,0811.8,5.01,000.00,025.6,024.9,000.0,034.0,027.5,016.1,0000.0,0011.94,0003.85,0002.31
2024-05-06 06:34:00,SystemResetWarning,0811.8,5.00,000.00,025.7,024.9,000.0,034.1,027.5,016.2,0000.0,0012.47,0003.86,0002.32
2024-05-06 06:35:00,SystemResetWarning,0811.8,5.00,000.00,025.7,024.9,000.0,034.1,027.5,016.1,0000.0,0013.05,0003.96,0002.35
2024-05-06 06:36:00,SystemResetWarning,0811.7,5.00,000.00,025.7,024.9,000.0,034.1,027.5,016.1,0000.0,0013.27,0004.03,0002.37
2024-05-06 06:37:00,SystemResetWarning,0811.7,4.99,000.00,025.7,024.9,000.0,034.1,027.5,016.1,0000.0,0013.08,0004.06,0002.39
2024-05-06 06:38:00,SystemResetWarning,0811.7,4.99,000.00,025.7,024.9,000.0,034.1,027.5,016.1,0000.0,0013.12,0004.06,0002.37
2024-05-06 06:39:00,SystemResetWarning,0811.6,5.00,000.00,025.7,024.9,000.0,034.1,027.5,016.1,0000.0,0013.16,0004.10,0002.39
2024-05-06 06:40:00,SystemResetWarning,0811.6,5.00,000.00,025.7,025.0,000.0,034.1,027.5,016.1,0000.0,0013.00,0004.10,0002.40
2024-05-06 06:41:00,SystemResetWarning,0811.6,5.01,000.00,025.7,025.0,000.0,034.1,027.5,016.1,0000.0,0013.17,0004.06,0002.38
2024-05-06 06:42:00,SystemResetWarning,0811.6,5.01,000.00,025.7,025.0,000.0,034.1,027.5,016.2,0000.0,0012.13,0004.03,0002.39
2024-05-06 06:43:00,SystemResetWarning,0811.6,4.99,000.00,025.7,025.0,000.0,034.1,027.6,016.3,0000.0,0012.48,0004.00,0002.36
2024-05-06 06:44:00,SystemResetWarning,0811.6,5.00,000.00,025.7,025.0,000.0,034.2,027.6,016.2,0000.0,0011.98,0004.02,0002.40
2024-05-06 06:45:00,SystemResetWarning,0811.6,5.00,000.00,025.7,025.0,000.0,034.2,027.5,016.2,0000.0,0012.24,0004.06,0002.41
2024-05-06 06:46:00,SystemResetWarning,0811.6,5.00,000.00,025.7,025.0,000.0,034.2,027.5,016.0,0000.0,0011.45,0004.04,0002.41
2024-05-06 06:47:00,SystemResetWarning,0811.6,5.00,000.00,025.7,025.0,000.0,034.2,027.6,016.0,0000.0,0011.32,0004.02,0002.43
2024-05-06 06:48:00,SystemResetWarning,0811.6,4.99,000.00,025.8,025.0,000.0,034.2,027.6,016.0,0000.0,0011.35,0004.04,0002.46
2024-05-06 06:49:00,SystemResetWarning,0811.6,5.00,000.00,025.8,025.0,000.0,034.2,027.6,015.9,0000.0,0011.53,0004.06,0002.49
2024-05-06 06:50:00,SystemResetWarning,0811.6,5.00,000.00,025.8,025.0,000.0,034.2,027.6,016.0,0000.0,0012.28,0004.09,0002.50
2024-05-06 06:51:00,SystemResetWarning,0811.6,4.99,000.00,025.8,025.0,000.0,034.2,027.6,016.0,0000.0,0012.32,0004.08,0002.52
2024-05-06 06:52:00,SystemResetWarning,0811.6,5.00,000.00,025.8,025.0,000.0,034.2,027.6,016.0,0000.0,0011.84,0004.09,0002.53
2024-05-06 06:53:00,SystemResetWarning,0811.5,5.01,000.00,025.8,025.0,000.0,034.2,027.6,016.0,0000.0,0012.24,0004.15,0002.54
2024-05-06 06:54:00,SystemResetWarning,0811.5,5.00,000.00,025.8,025.0,000.0,034.2,027.6,015.9,0000.0,0012.08,0004.16,0002.56
2024-05-06 06:55:00,SystemResetWarning,0811.5,5.00,000.00,025.8,025.0,000.0,034.2,027.6,016.0,0000.0,0012.02,0004.15,0002.60
2024-05-06 06:56:00,SystemResetWarning,0811.5,5.00,000.00,025.8,025.0,000.0,034.2,027.6,015.9,0000.0,0011.67,0004.11,0002.63
2024-05-06 06:57:00,SystemResetWarning,0811.5,5.00,000.00,025.8,025.0,000.0,034.2,027.6,016.0,0000.0,0012.38,0004.10,0002.65
2024-05-06 06:58:00,SystemResetWarning,0811.5,5.00,000.00,025.8,025.0,000.0,034.2,027.6,016.0,0000.0,0012.70,0004.09,0002.66
2024-05-06 06:59:00,SystemResetWarning,0811.5,5.00,000.00,025.8,025.0,000.0,034.2,027.6,015.9,0000.0,0013.21,0004.05,0002.65
